Date String (YYYY-MM-DD hh:mm:ss) UTC,Instrument flags,absolute air pressure of the measurement (hPa),sample flow rate (lpm),inlet stack bypass flow (lpm),air temperature of the measurement (°C),ambient temperature measured by the external sensor (°C),aerosol sample conditioner tube jacket temperature (°C),OPC LED temperature (°C),internal box temperature (°C),relative humidity of the measurement (%),span deviation,mass concentration of particles derived from Lorenz-Mie calculation of OPC scattering (μg/m³),mass concentration of particles derived from Lorenz-Mie calculation of OPC scattering (μg/m³),mass concentration of particles derived from Lorenz-Mie calculation of OPC scattering (μg/m³)
DateTimeUTC,F1_M11,P_M11,Q1_M11,Q2_M11,T1_M11,T2_M11,T3_M11,T4_M11,T5_M11,U1_M11,ZSPAN_M11,X0_M11,X2_M11,X1_M11
2023-08-15 22:00:00,SystemResetWarning,0835.7,5.00,000.00,028.9,026.2,000.0,037.0,030.3,18.6,0000.0,0018.36,0005.21,0003.94
2023-08-15 22:01:00,SystemResetWarning,0835.7,5.00,000.00,028.8,024.9,000.0,036.9,030.1,18.1,0000.0,0019.47,0005.21,0003.94
2023-08-15 22:02:00,SystemResetWarning,0835.6,5.01,000.00,028.7,025.1,000.0,036.9,030.0,17.3,0000.0,0020.48,0005.22,0003.93
2023-08-15 22:03:00,SystemResetWarning,0835.6,5.00,000.00,028.7,025.5,000.0,036.9,030.0,17.1,0000.0,0020.54,0005.23,0003.90
2023-08-15 22:04:00,SystemResetWarning,0835.6,5.00,000.00,028.7,025.9,000.0,037.0,030.1,17.0,0000.0,0020.06,0005.22,0003.90
2023-08-15 22:05:00,SystemResetWarning,0835.6,5.00,000.00,028.7,026.4,000.0,037.0,030.3,17.2,0000.0,0019.73,0005.19,0003.90
2023-08-15 22:06:00,SystemResetWarning,0835.6,5.01,000.00,028.8,026.8,000.0,037.0,030.4,16.7,0000.0,0020.03,0005.20,0003.89
2023-08-15 22:07:00,SystemResetWarning,0835.6,5.00,000.00,028.8,027.2,000.0,037.1,030.6,16.9,0000.6,0019.45,0005.19,0003.88
2023-08-15 22:08:00,SystemResetWarning,0835.6,5.00,000.00,028.9,027.4,000.0,037.1,030.6,16.6,0000.0,0017.82,0005.17,0003.87
2023-08-15 22:09:00,SystemResetWarning,0835.6,4.98,000.00,028.9,026.2,000.0,037.0,030.3,16.7,0000.0,0016.50,0005.15,0003.86
2023-08-15 22:10:00,SystemResetWarning,0835.6,5.01,000.00,028.8,024.9,000.0,036.9,030.1,17.1,0000.2,0016.23,0005.09,0003.85
2023-08-15 22:11:00,SystemResetWarning,0835.6,5.02,000.00,028.7,025.1,000.0,036.8,030.1,16.8,0003.0,0015.98,0005.05,0003.85
2023-08-15 22:12:00,SystemResetWarning,0835.6,5.00,000.00,028.7,025.5,000.0,036.9,030.1,17.3,0003.3,0014.85,0005.01,0003.85
2023-08-15 22:13:00,SystemResetWarning,0835.6,5.00,000.00,028.7,025.9,000.0,036.9,030.1,16.9,0003.3,0014.44,0004.99,0003.84
2023-08-15 22:14:00,SystemResetWarning,0835.6,5.00,000.00,028.7,026.3,000.0,037.0,030.3,16.9,0002.9,0014.57,0004.99,0003.86
2023-08-15 22:15:00,SystemResetWarning,0835.6,5.00,000.00,028.7,026.8,000.0,037.0,030.4,17.3,0003.1,0014.88,0004.95,0003.86
2023-08-15 22:16:00,SystemResetWarning,0835.6,5.00,000.00,028.8,027.1,000.0,037.0,030.5,16.9,0003.3,0017.45,0004.95,0003.86
2023-08-15 22:17:00,SystemResetWarning,0835.6,5.00,000.00,028.9,027.4,000.0,037.1,030.6,17.1,0003.0,0018.83,0004.98,0003.86
2023-08-15 22:18:00,SystemResetWarning,0835.6,5.00,000.00,028.9,027.7,000.0,037.1,030.7,16.7,0002.7,0018.54,0004.95,0003.85
2023-08-15 22:19:00,SystemResetWarning,0835.6,4.98,000.00,028.9,026.7,000.0,037.0,030.5,16.4,0000.7,0018.88,0004.96,0003.85
2023-08-15 22:20:00,SystemResetWarning,0835.6,5.00,000.00,028.8,025.1,000.0,036.9,030.1,16.6,0001.7,0019.72,0004.96,0003.84
2023-08-15 22:21:00,SystemResetWarning,0835.6,5.01,000.00,028.8,025.1,000.0,036.9,030.0,17.1,0002.3,0019.30,0004.97,0003.83
2023-08-15 22:22:00,SystemResetWarning,0835.6,5.01,000.00,028.7,025.5,000.0,036.9,030.1,16.5,0000.4,0019.53,0004.98,0003.83
2023-08-15 22:23:00,SystemResetWarning,0835.6,4.99,000.00,028.7,025.9,000.0,037.0,030.2,16.6,0000.0,0019.54,0004.97,0003.82
2023-08-15 22:24:00,SystemResetWarning,0835.6,5.00,000.00,028.7,026.4,000.0,037.0,030.3,16.5,0000.0,0019.58,0004.94,0003.82
2023-08-15 22:25:00,SystemResetWarning,0835.7,5.01,000.00,028.8,026.8,000.0,037.0,030.5,16.7,0000.0,0018.99,0004.88,0003.80
2023-08-15 22:26:00,SystemResetWarning,0835.6,4.99,000.00,028.8,027.2,000.0,037.1,030.5,16.6,0000.0,0018.66,0004.88,0003.78
2023-08-15 22:27:00,SystemResetWarning,0835.6,5.00,000.00,028.9,027.5,000.0,037.1,030.7,16.7,0000.0,0016.39,0004.84,0003.76
2023-08-15 22:28:00,SystemResetWarning,0835.6,4.99,000.00,029.0,027.5,000.0,037.1,030.7,16.5,0000.0,0015.03,0004.80,0003.75
2023-08-15 22:29:00,SystemResetWarning,0835.6,5.00,000.00,028.9,025.9,000.0,037.0,030.4,17.1,0000.0,0015.73,0004.72,0003.73
2023-08-15 22:30:00,SystemResetWarning,0835.5,5.00,000.00,028.8,025.0,000.0,036.9,030.2,16.7,0000.0,0016.26,0004.67,0003.73
2023-08-15 22:31:00,SystemResetWarning,0835.7,5.01,000.00,028.8,025.4,000.0,036.9,030.2,16.4,0000.0,0016.05,0004.62,0003.72
2023-08-15 22:32:00,SystemResetWarning,0835.5,5.01,000.00,028.8,025.7,000.0,037.0,030.2,16.5,0000.0,0015.79,0004.62,0003.71
2023-08-15 22:33:00,SystemResetWarning,0835.5,5.00,000.00,028.8,026.2,000.0,037.0,030.3,16.2,0000.0,0015.48,0004.55,0003.71
2023-08-15 22:34:00,SystemResetWarning,0835.5,5.00,000.00,028.8,026.6,000.0,037.0,030.4,16.2,0000.0,0014.51,0004.54,0003.71
2023-08-15 22:35:00,SystemResetWarning,0835.5,5.00,000.00,028.8,027.0,000.0,037.1,030.5,16.5,0000.0,0013.76,0004.49,0003.69
2023-08-15 22:36:00,SystemResetWarning,0835.5,5.00,000.00,028.9,027.4,000.0,037.1,030.6,16.4,0000.0,0014.08,0004.43,0003.68
2023-08-15 22:37:00,SystemResetWarning,0835.6,5.00,000.00,029.0,027.6,000.0,037.1,030.7,17.0,0000.0,0014.43,0004.40,0003.66
2023-08-15 22:38:00,SystemResetWarning,0835.5,4.99,000.00,029.0,026.9,000.0,037.1,030.6,16.5,0000.0,0014.45,0004.37,0003.66
2023-08-15 22:39:00,SystemResetWarning,0835.5,5.00,000.00,028.9,025.3,000.0,037.0,030.2,16.1,0000.0,0015.57,0004.38,0003.64
2023-08-15 22:40:00,SystemResetWarning,0835.5,5.01,000.00,028.8,025.1,000.0,036.9,030.2,16.1,0000.0,0014.57,0004.40,0003.64
2023-08-15 22:41:00,SystemResetWarning,0835.5,5.01,000.00,028.8,025.5,000.0,036.9,030.2,16.6,0000.0,0013.92,0004.40,0003.63
2023-08-15 22:42:00,SystemResetWarning,0835.5,5.00,000.00,028.8,025.9,000.0,037.0,030.2,16.3,0000.0,0013.50,0004.41,0003.62
2023-08-15 22:43:00,SystemResetWarning,0835.5,5.01,000.00,028.8,026.3,000.0,037.0,030.3,16.5,0000.0,0013.79,0004.38,0003.61
2023-08-15 22:44:00,SystemResetWarning,0835.5,4.99,000.00,028.8,026.8,000.0,037.1,030.5,16.1,0000.0,0013.79,0004.34,0003.58
2023-08-15 22:45:00,SystemResetWarning,0835.5,4.99,000.00,028.9,027.1,000.0,037.1,030.6,16.3,0000.0,0014.50,0004.31,0003.56
2023-08-15 22:46:00,SystemResetWarning,0835.5,5.00,000.00,029.0,027.5,000.0,037.2,030.7,15.9,0000.0,0015.84,0004.33,0003.55
2023-08-15 22:47:00,SystemResetWarning,0835.5,4.99,000.00,029.0,027.0,000.0,037.1,030.6,16.0,0000.0,0015.58,0004.36,0003.55
2023-08-15 22:48:00,SystemResetWarning,0835.5,5.00,000.00,028.9,025.3,000.0,037.0,030.2,16.2,0000.0,0015.25,0004.34,0003.55
2023-08-15 22:49:00,SystemResetWarning,0835.5,5.01,000.00,028.8,025.0,000.0,036.9,030.1,16.2,0000.0,0016.32,0004.45,0003.56
2023-08-15 22:50:00,SystemResetWarning,0835.5,5.01,000.00,028.8,025.4,000.0,036.9,030.1,16.2,0000.0,0015.34,0004.48,0003.56
2023-08-15 22:51:00,SystemResetWarning,0835.5,5.00,000.00,028.7,025.8,000.0,037.0,030.2,16.4,0000.0,0015.95,0004.46,0003.55
2023-08-15 22:52:00,SystemResetWarning,0835.5,4.99,000.00,028.8,026.3,000.0,037.0,030.3,16.8,0000.0,0015.58,0004.47,0003.55
2023-08-15 22:53:00,SystemResetWarning,0835.5,5.00,000.00,028.8,026.7,000.0,037.1,030.4,16.2,0000.0,0015.56,0004.47,0003.55
2023-08-15 22:54:00,SystemResetWarning,0835.5,5.01,000.00,028.9,027.1,000.0,037.1,030.6,15.8,0000.0,0015.13,0004.45,0003.55
2023-08-15 22:55:00,SystemResetWarning,0835.5,5.01,000.00,028.9,027.4,000.0,037.1,030.7,15.8,0000.0,0015.18,0004.47,0003.56
2023-08-15 22:56:00,SystemResetWarning,0835.5,4.99,000.00,029.0,027.1,000.0,037.1,030.6,16.1,0000.0,0014.80,0004.46,0003.57
2023-08-15 22:57:00,SystemResetWarning,0835.5,4.99,000.00,028.9,025.4,000.0,037.0,030.1,15.7,0000.0,0013.75,0004.45,0003.57
2023-08-15 22:58:00,SystemResetWarning,0835.4,5.02,000.00,028.8,024.9,000.0,036.9,030.0,15.9,0000.0,0014.17,0004.48,0003.57
2023-08-15 22:59:00,SystemResetWarning,0835.4,5.00,000.00,028.8,025.3,000.0,036.9,030.1,15.9,0000.0,0013.83,0004.52,0003.57
